Regional Weather Roundup
Issued by NWS Northern Indiana

Home | Current Version | Previous Version | Graphics & Text | Print | Product List | Glossary On
Versions: 1 2 3 4 5 6 7 8 9 10 11 12 13 14 15 16 17 18 19 20 21 22 23 24 25 26 27 28 29 30 31 32 33 34 35 36 37 38 39 40 41 42 43 44 45 46 47 48 49 50
000
ASUS43 KIWX 241110
RWRIWX

KIWX WEATHER ROUNDUP
NATIONAL WEATHER SERVICE NORTHERN INDIANA
600 AM EST FRI NOV 24 2017

NOTE: "FAIR" INDICATES FEW OR NO CLOUDS BELOW 12,000 FEET WITH NO
SIGNIFICANT WEATHER AND/OR OBSTRUCTIONS TO VISIBILITY.

* THESE STATIONS ARE NOT UNDER NWS QUALITY CONTROL. THEY ALSO MAY NOT
  REPORT WEATHER SUCH AS PRECIPITATION OR FOG.

INZ001>027-241200-
NORTHERN INDIANA

CITY           SKY/WX    TMP DP  RH WIND       PRES   REMARKS
GARY*          CLEAR     36  27  69 SW6       29.84F
VALPARAISO     CLEAR     33  26  75 SW9       29.85S WCI  25
MICHIGAN CITY* PTCLDY    34  27  75 SW7       29.84S WCI  28
LAPORTE*       CLEAR     32  26  77 SW6       29.85S WCI  26
KNOX*          CLEAR     32  27  80 S7        29.85F WCI  26
SOUTH BEND     CLEAR     31  25  78 S9        29.85F WCI  23
GOSHEN         CLEAR     33  23  66 S7        29.86F WCI  27
MONTICELLO*    CLEAR     32  24  71 S8        29.88S WCI  25
LOGANSPORT*    CLEAR     30  27  86 S8        29.89F WCI  23
ROCHESTER*     CLEAR     36  27  69 SW7       29.87F
WARSAW*        CLEAR     32  25  74 CALM      29.87S
AUBURN*        CLEAR     32  23  69 S5        29.89R WCI  27
FORT WAYNE     CLEAR     31  25  78 SW7       29.90S WCI  24
HUNTINGTON*    CLEAR     32  23  69 S5        29.89S WCI  28
PERU/GRISSOM   CLEAR     31  25  79 S8        29.88S WCI  24
MARION*        CLEAR     32  25  77 S9        29.91S WCI  24

$$
INZ028>050-241200-
CENTRAL INDIANA

CITY           SKY/WX    TMP DP  RH WIND       PRES   REMARKS
LAFAYETTE      CLEAR     32  25  75 CALM      29.89F
KOKOMO*        CLEAR     31  25  78 S8        29.90S WCI  23
MUNCIE*        CLEAR     35  23  61 S7        29.91F WCI  29
INDIANAPOLIS   CLOUDY    31  24  75 S6        29.93S WCI  25

$$
MIZ043>046-050>051-056>058-064>065-071>073-077>080-241200-
SOUTHWEST LOWER MICHIGAN

CITY           SKY/WX    TMP DP  RH WIND       PRES   REMARKS
BATTLE CREEK   CLEAR     32  24  72 S12       29.83F WCI  23
BENTON HARBOR  CLEAR     34  25  69 S7        29.82F WCI  28
COLDWATER*     CLEAR     32  23  68 SW7       29.85S WCI  26
HILLSDALE*     CLEAR     32  23  69 SW6       29.85R WCI  26
HOLLAND        CLEAR     33  26  75 S10       29.80F WCI  25
GRAND RAPIDS   CLEAR     34  27  75 SW10      29.79F WCI  26
KALAMAZOO      CLEAR     32  24  72 S10       29.83F WCI  24
STURGIS*       CLEAR     30  25  79 S7        29.85S WCI  23
THREE RIVERS*  FAIR      31  25  79 S6        29.85F WCI  25

$$
OHZ001>008-015>018-024>025-241200-
NORTHWEST OHIO

CITY           SKY/WX    TMP DP  RH WIND       PRES   REMARKS
WAUSEON*       FAIR      30  28  93 S8        29.88S WCI  23
DEFIANCE       CLEAR     31  23  72 S8        29.89F WCI  23
FINDLAY        CLEAR     32  24  72 S12       29.91F WCI  23
TOLEDO EXPRESS CLEAR     32  26  78 S6        29.89F WCI  26
TOLEDO METCALF CLEAR     29  24  82 S7        29.91F WCI  22
LIMA           CLEAR     32  24  72 S10       29.91F WCI  24

$$
AND FOR LAKE MICHIGAN COASTAL AND OPEN LAKE BUOY OBSERVATIONS

STATION/POSITION TEMP    WIND        PRES    VSBY  WAVE
                 AIR SEA DIR/SP/G                  HT/PER
                 (F)     (DEG/KT/KT) (MB)    (MI)  (FT/S)
CALUMET HARBOR    35     180/  5/ 10 1009.3R
MICHIGAN CITY     35     170/ 10/ 16   N/A
BURNS HARBOR      36     190/ 11/ 14 1010.8S
SAINT JOSEPH      35     160/  4/  9 1010.2
SOUTH LAKE BUOY   44 47  220/ 19/ 23 1008.2F         4/ 5

$$
&&




USA.gov is the U.S. government's official web portal to all federal, state and local government web resources and services.